Temperature
13 13 13 12 12 12 11 11 11 11 10 10 10 10 10 10 11 11 11 11 11 12 12 13 13 13 13 13 13 13 13 12 12 13 13 13 13 13 13 14 14 14 14
13 12 12 12 12 11 11 11 11 10 10 10 10 10 10 10 10 10 10 10 11 11 11 12 12 12 12 13 13 13 13 13 12 12 13 13 13 13 13 13 13 13 13
12 12 12 12 11 11 11 11 11 10 10 10 10 10 9 9 9 9 9 10 10 10 10 11 11 11 12 12 12 13 13 12 12 12 13 12 12 12 12 12 12 12 12
12 12 11 11 11 11 11 11 11 10 10 10 10 9 9 9 9 9 9 9 9 9 10 10 10 11 11 12 12 12 12 12 12 12 12 12 12 12 12 12 12 12 12
11 11 11 11 11 11 11 11 10 10 10 10 10 9 9 9 9 9 9 9 9 9 9 10 10 10 11 11 11 12 12 12 12 12 12 12 12 12 12 12 12 11 11
10 10 10 10 10 10 10 10 10 10 10 10 9 9 9 9 9 9 9 9 9 9 9 9 9 10 10 11 11 11 11 12 12 12 12 12 12 12 12 12 12 11 11
9 9 9 9 9 9 9 9 9 9 9 9 9 9 9 9 9 9 8 8 8 8 8 9 9 9 10 10 10 11 11 11 11 12 12 12 12 12 12 12 12 11 12
7 8 8 8 8 8 8 8 9 9 9 9 9 9 9 9 9 8 8 8 8 8 8 8 9 9 9 9 10 10 11 11 11 11 12 12 12 12 12 12 12 11 11
7 6 6 6 6 7 7 7 7 8 8 8 8 8 8 8 8 8 8 8 8 8 8 8 8 9 9 9 9 10 10 11 11 11 12 12 12 12 12 12 11 11 10
6 5 5 6 6 6 6 6 6 7 7 7 7 8 8 8 8 8 8 8 8 8 8 8 8 8 9 9 9 9 10 11 11 11 11 11 12 12 12 12 12 11 11
5 5 5 5 5 5 5 5 5 6 6 6 7 7 7 8 8 8 8 8 8 8 8 8 8 8 8 8 9 9 10 10 10 11 11 11 11 11 11 11 11 12 12
5 5 5 5 5 5 5 5 5 5 5 5 6 6 7 7 7 8 7 7 7 7 8 8 8 8 8 8 9 9 9 9 10 10 10 11 11 11 11 11 11 11 11
4 4 4 4 4 4 4 5 5 5 5 5 5 6 6 7 7 7 7 7 7 7 8 8 8 8 8 8 8 9 9 9 10 10 10 10 11 11 10 10 10 10 10
4 4 4 4 4 4 4 4 4 4 5 5 5 5 6 6 6 7 7 7 7 7 7 7 7 7 7 8 8 8 8 9 9 10 10 10 10 10 10 10 10 10 10
4 4 4 4 4 4 4 4 4 4 4 5 5 5 5 6 6 6 7 7 7 7 7 7 7 7 7 7 7 8 8 9 9 9 10 10 10 10 10 10 10 10 10
4 4 4 4 4 4 4 4 4 4 4 4 5 5 5 5 6 6 6 7 7 7 7 7 7 7 7 7 7 7 8 8 9 9 10 10 10 10 10 10 10 10 10
4 4 4 4 4 4 4 4 4 4 4 5 5 5 5 5 6 6 6 6 6 6 6 7 6 6 6 7 7 7 8 8 9 9 9 10 10 10 10 9 9 10 10
5 5 4 4 4 4 4 4 4 4 4 5 5 5 5 5 5 6 6 6 6 6 6 6 6 6 6 6 7 7 7 8 8 9 9 9 9 9 9 9 9 9 10
5 5 5 5 4 4 4 4 4 4 5 5 5 5 5 5 5 6 6 6 6 6 6 6 6 6 6 6 7 7 7 8 8 9 9 9 9 9 9 9 9 9 9
5 5 5 5 5 5 5 5 5 5 5 5 5 5 5 5 5 6 6 6 6 6 6 6 6 6 6 6 7 7 7 8 8 8 9 9 9 9 9 9 9 9 9
5 5 5 5 5 5 5 5 5 5 5 5 5 5 5 5 6 6 6 6 6 6 6 6 6 6 6 6 7 7 8 8 8 9 9 9 9 9 9 9 9 9 9
5 5 5 5 5 5 5 5 5 5 5 5 5 5 5 5 6 6 6 6 6 6 6 6 6 6 7 7 7 7 8 8 8 9 9 9 9 9 9 9 9 9 9
6 6 6 5 5 5 5 5 5 5 5 5 5 6 6 6 6 6 6 6 6 6 6 6 6 7 7 7 8 8 9 9 9 9 9 9 9 9 9 9 9 9 9
6 6 6 6 6 6 6 5 5 5 5 6 6 6 6 6 6 6 6 6 6 6 6 7 7 7 8 8 8 9 9 9 9 9 9 9 9 9 9 9 9 9 9
6 6 6 6 6 6 6 6 6 6 6 6 6 6 6 6 6 6 6 6 7 7 7 8 8 8 8 9 9 9 9 10 10 10 10 10 10 10 10 10 10 10 10
6 6 6 6 6 6 6 6 6 6 6 6 6 6 6 7 7 7 7 7 7 8 8 8 9 9 9 9 9 10 10 10 10 10 10 10 10 10 10 10 10 10 10
Wind_Speed
9 8 8 8 7 6 6 8 7 6 6 6 5 5 5 4 4 3 4 4 5 5 5 6 7 7 6 6 6 6 7 6 8 5 2 1 1 3 3 5 7 7 8
10 9 10 9 8 8 9 9 8 8 8 7 7 6 6 6 5 5 5 5 5 6 6 6 7 6 7 6 6 7 7 8 7 7 4 3 2 4 5 6 5 7 8
11 11 11 11 11 11 12 11 9 9 9 8 7 8 8 7 7 7 6 6 6 6 6 6 6 6 7 6 7 7 7 7 7 7 5 3 2 4 5 6 7 6 8
11 11 12 13 13 13 12 11 11 10 10 10 10 9 9 9 8 8 7 7 7 6 6 6 7 7 8 8 8 9 8 8 7 7 6 4 3 5 6 6 6 5 6
11 11 13 13 13 12 12 12 11 11 11 11 10 10 9 8 8 9 8 8 7 7 7 6 7 9 10 9 8 8 8 8 8 8 7 6 5 7 7 5 7 7 5
11 12 13 12 12 12 12 12 11 11 11 10 10 11 10 9 12 14 10 8 8 8 8 7 7 9 9 10 12 13 12 10 10 9 8 8 9 8 7 10 9 8 4
11 13 12 12 12 12 13 11 11 12 11 10 11 11 11 12 15 15 14 9 9 9 9 8 7 7 8 7 9 11 13 15 15 11 11 10 11 12 13 13 11 8 5
12 13 12 12 13 12 12 12 11 10 9 10 11 11 11 13 15 16 15 10 9 9 9 9 9 9 8 8 7 8 9 11 13 13 12 11 10 12 14 13 12 10 9
13 13 13 12 12 12 12 12 11 9 10 9 8 10 11 12 14 15 13 7 8 10 9 9 9 9 10 10 8 8 9 8 9 12 12 11 12 15 15 13 13 13 9
14 14 13 12 12 12 12 11 9 9 10 10 10 10 11 11 13 14 13 6 7 8 7 8 10 10 9 9 9 9 10 8 7 7 8 10 12 16 19 17 16 16 12
14 14 14 12 12 13 12 10 10 9 9 9 10 9 10 11 12 14 12 7 8 8 7 7 7 9 10 10 10 10 11 7 7 8 8 9 11 12 13 11 12 15 13
15 15 14 12 13 12 10 9 9 9 9 9 9 9 8 8 10 11 13 13 11 8 8 7 6 8 9 9 8 9 10 8 6 7 8 9 10 12 11 11 10 8 6
15 14 13 13 11 10 10 10 8 8 8 8 7 8 7 6 7 12 12 13 13 9 7 8 8 7 6 6 8 9 9 8 8 9 9 9 8 11 11 11 11 10 10
14 13 12 11 10 9 8 7 7 7 8 8 8 8 7 6 6 6 5 6 8 9 7 6 7 6 5 5 5 6 7 7 8 8 8 8 9 11 11 12 12 11 10
14 12 11 10 9 8 7 6 7 7 7 8 7 7 7 7 7 9 6 6 6 7 6 4 4 3 4 4 4 4 5 6 7 7 9 10 11 11 11 11 11 10 8
12 11 8 8 7 6 6 6 8 9 10 12 11 8 7 8 7 8 10 9 9 10 6 4 5 5 6 5 5 4 5 7 7 8 10 11 12 13 11 10 11 11 11
13 11 8 7 7 6 5 4 4 3 5 7 9 10 9 7 7 7 7 7 8 10 5 4 5 5 5 5 4 4 5 7 8 9 10 11 12 12 12 12 11 11 11
12 11 9 6 6 5 3 3 2 2 1 1 2 4 7 6 5 6 9 8 5 5 3 3 4 4 5 4 4 5 6 7 8 9 11 11 12 13 12 12 11 12 12
11 8 7 5 5 4 2 2 1 1 1 1 2 2 3 5 6 8 9 4 5 5 4 3 3 4 4 4 4 5 7 8 9 10 10 11 12 12 12 12 11 14 13
9 11 9 5 4 3 2 1 0 0 1 2 2 3 4 4 4 5 4 3 3 4 4 3 3 4 4 4 5 6 8 9 10 10 10 11 11 12 13 13 12 12 11
8 8 9 6 4 3 2 1 1 1 1 1 2 4 6 4 5 5 4 3 3 3 3 3 3 4 4 5 5 7 9 9 10 10 11 11 11 11 11 11 12 11 11
7 6 5 5 3 3 2 2 1 1 2 3 3 4 5 3 3 4 3 3 3 2 2 2 3 3 4 5 7 8 9 10 10 11 11 11 11 11 11 11 11 11 11
7 6 5 4 3 3 3 2 2 2 3 4 4 4 3 3 3 3 2 2 2 2 2 2 3 3 4 5 6 8 10 11 11 12 12 11 11 11 11 11 12 12 11
7 6 5 4 4 3 3 3 3 3 3 4 4 4 3 3 3 2 2 2 2 2 2 2 2 3 6 6 5 6 8 10 11 11 14 12 11 10 10 11 11 13 12
6 6 5 4 4 4 3 3 4 4 4 4 4 4 3 3 2 2 2 2 3 2 2 2 2 3 5 8 8 7 11 13 12 11 11 11 12 11 11 11 10 11 10
7 6 5 4 4 3 4 4 4 4 4 4 4 3 3 3 2 2 2 2 2 1 2 2 3 4 6 8 9 11 12 13 14 13 11 10 11 10 11 9 12 11 11
Wind_Direction
259 254 254 253 248 245 242 243 240 242 242 244 248 254 259 264 263 261 264 262 256 262 259 242 239 231 225 221 216 217 221 225 246 254 241 224 173 134 103 93 92 88 91
261 261 257 257 253 248 246 247 241 240 240 238 237 242 248 248 240 240 252 251 248 253 253 250 249 241 231 225 219 221 223 221 231 248 240 214 192 159 133 115 102 96 94
260 258 260 259 255 250 248 247 240 237 240 240 233 236 242 243 241 236 237 246 245 248 245 242 247 244 242 234 226 226 225 224 223 233 233 210 181 155 137 120 111 104 98
265 261 260 259 256 253 251 247 243 238 236 238 235 234 236 239 240 240 237 240 244 245 243 239 240 238 242 240 234 229 223 222 222 225 223 207 183 160 150 141 130 114 104
273 269 264 262 259 257 255 252 247 241 239 235 235 237 236 233 236 233 233 237 237 244 249 248 247 247 244 239 234 227 218 218 218 219 216 203 186 172 166 153 142 126 97
275 273 272 270 266 261 256 253 250 246 242 234 232 235 236 236 230 225 221 228 234 242 251 257 259 257 257 250 238 228 218 216 216 216 215 207 194 176 161 156 149 144 134
277 276 273 270 268 265 263 257 250 248 242 236 235 233 235 236 234 233 231 226 231 237 242 249 259 256 249 254 249 236 226 223 219 216 216 209 193 177 167 166 166 154 138
280 278 275 271 268 267 262 256 250 247 243 240 238 234 233 238 235 234 236 231 231 236 238 239 243 254 253 245 250 246 238 231 223 222 224 215 196 180 174 165 152 124 110
284 281 278 273 270 266 261 257 252 247 246 241 238 232 230 238 236 235 233 226 232 240 241 236 235 246 250 240 239 244 244 239 228 219 216 208 186 169 159 149 147 143 139
290 286 281 274 269 266 260 257 254 248 247 245 242 234 229 235 236 232 226 218 231 241 242 238 234 237 245 239 234 234 236 233 211 201 199 192 181 168 164 165 161 156 148
294 290 284 277 272 267 261 254 250 248 247 244 243 240 231 231 237 235 225 211 221 232 237 239 236 231 240 239 232 233 231 218 204 196 185 179 173 171 171 168 165 162 158
296 292 288 282 278 277 262 253 246 243 243 243 242 243 238 233 231 234 228 219 213 219 227 231 229 231 239 238 231 230 223 207 199 190 180 175 172 169 165 159 150 139 129
301 297 292 289 282 273 264 257 249 240 239 239 234 236 239 232 232 231 232 228 217 213 224 223 221 227 234 239 231 226 210 201 193 186 178 172 164 157 149 141 128 112 100
304 302 296 291 287 276 264 255 246 239 235 231 229 230 232 228 228 226 225 224 216 211 214 214 212 213 220 230 223 216 207 197 189 180 167 155 146 148 150 147 143 135 124
306 302 299 291 287 283 269 254 247 239 228 223 225 220 219 226 226 212 204 205 198 194 182 187 194 200 211 216 209 207 194 182 177 165 158 153 149 148 148 145 144 141 137
310 307 302 298 293 285 277 272 249 241 235 227 226 221 222 224 223 218 213 208 192 173 169 192 202 206 209 208 198 191 184 173 163 157 156 154 151 149 145 145 149 149 146
312 309 303 301 298 290 282 274 278 263 241 232 226 221 220 220 221 212 192 181 173 168 182 198 206 206 200 189 182 181 174 162 152 152 152 149 145 146 147 150 152 149 146
317 313 312 306 306 301 291 281 263 254 246 190 196 208 213 213 197 172 155 143 154 178 199 203 203 193 182 174 173 166 156 149 145 146 145 144 144 145 147 150 153 151 147
322 317 315 314 314 310 302 290 268 239 211 151 122 92 116 130 130 148 155 163 170 185 203 208 192 174 164 166 166 157 151 147 144 141 140 141 143 143 145 148 148 147 147
326 327 334 331 329 330 326 316 277 157 144 150 149 139 131 124 133 151 172 177 180 192 199 194 176 161 156 157 153 145 139 140 142 138 139 142 143 144 145 146 149 152 154
331 333 341 343 341 341 347 5 72 108 121 134 142 153 154 149 153 162 174 183 187 191 195 174 164 159 155 149 144 140 139 141 142 141 141 143 144 142 143 145 148 149 146
336 338 341 344 349 1 7 23 57 80 96 102 105 116 134 125 140 155 170 184 187 178 173 154 145 148 148 148 148 146 145 144 144 143 143 143 142 142 144 146 147 148 149
344 350 353 359 6 18 32 46 63 77 88 97 108 115 129 133 149 163 173 169 149 150 161 148 130 134 147 151 151 153 152 151 151 149 146 144 144 146 149 152 153 154 157
348 356 4 7 13 27 40 56 71 84 94 100 108 120 136 145 150 157 156 148 139 149 167 164 153 141 143 148 151 152 150 147 148 151 148 148 148 149 151 155 160 163 164
353 1 8 10 17 29 42 59 72 84 92 99 108 117 129 134 135 137 139 146 159 170 172 164 152 147 152 157 156 149 142 140 143 147 147 148 150 153 156 158 160 160 162
359 3 9 16 28 42 55 66 72 80 88 98 108 112 116 118 117 123 141 154 163 175 164 154 152 152 155 158 151 142 142 143 144 144 147 148 150 155 158 159 161 165 165
Height
1479 1477 1474 1472 1471 1469 1468 1466 1465 1464 1463 1461 1461 1460 1459 1459 1459 1459 1460 1461 1462 1464 1465 1467 1468 1470 1472 1473 1475 1475 1476 1477 1477 1477 1478 1479 1479 1480 1480 1481 1482 1483 1484
1474 1471 1469 1467 1465 1463 1461 1460 1459 1458 1458 1457 1456 1455 1454 1454 1453 1453 1454 1454 1456 1457 1458 1460 1461 1463 1465 1467 1469 1470 1471 1472 1473 1473 1474 1475 1476 1477 1478 1479 1480 1481 1482
1467 1464 1462 1459 1457 1455 1454 1453 1452 1451 1451 1451 1450 1449 1449 1449 1448 1448 1448 1448 1449 1450 1452 1453 1455 1456 1458 1460 1462 1464 1466 1467 1467 1468 1469 1471 1473 1474 1475 1477 1479 1480 1481
1460 1456 1453 1451 1449 1447 1446 1445 1444 1443 1443 1443 1443 1443 1443 1442 1443 1443 1443 1443 1443 1444 1445 1447 1448 1449 1451 1453 1455 1457 1459 1461 1462 1463 1464 1466 1468 1470 1472 1474 1477 1479 1480
1451 1448 1445 1442 1440 1438 1437 1436 1435 1434 1434 1435 1435 1435 1436 1436 1436 1437 1437 1437 1438 1438 1439 1440 1441 1443 1444 1446 1448 1451 1453 1454 1455 1457 1459 1461 1463 1466 1468 1471 1474 1476 1479
1442 1438 1435 1433 1430 1428 1427 1426 1425 1425 1425 1426 1426 1427 1428 1428 1429 1430 1431 1431 1432 1432 1433 1433 1435 1436 1438 1439 1441 1443 1446 1447 1449 1451 1453 1455 1457 1461 1464 1467 1471 1474 1477
1433 1429 1426 1423 1421 1419 1418 1416 1416 1416 1416 1416 1417 1418 1419 1421 1422 1423 1424 1425 1425 1426 1426 1427 1428 1429 1431 1432 1434 1436 1438 1440 1442 1444 1446 1448 1452 1455 1459 1463 1467 1471 1473
1423 1419 1416 1413 1411 1409 1407 1406 1406 1407 1407 1407 1408 1410 1411 1412 1414 1416 1417 1417 1418 1418 1419 1420 1421 1422 1424 1426 1427 1428 1430 1432 1435 1437 1440 1443 1447 1451 1455 1459 1463 1468 1473
1413 1409 1406 1403 1400 1398 1397 1396 1396 1396 1397 1398 1399 1401 1402 1404 1406 1408 1409 1410 1410 1411 1413 1414 1415 1416 1417 1419 1420 1421 1423 1425 1428 1431 1434 1437 1441 1446 1450 1454 1459 1463 1469
1404 1400 1396 1393 1390 1388 1387 1386 1386 1387 1387 1389 1390 1392 1394 1396 1398 1400 1402 1403 1403 1405 1406 1407 1408 1409 1410 1411 1413 1414 1416 1418 1422 1425 1428 1431 1435 1440 1444 1449 1454 1459 1464
1395 1391 1387 1383 1381 1378 1377 1376 1377 1377 1378 1379 1381 1383 1385 1388 1391 1393 1395 1396 1397 1398 1399 1400 1401 1403 1404 1405 1406 1408 1410 1413 1416 1419 1422 1426 1430 1435 1440 1446 1451 1456 1460
1386 1382 1378 1374 1371 1369 1368 1367 1368 1368 1369 1371 1373 1375 1377 1380 1383 1385 1387 1389 1390 1392 1393 1394 1395 1396 1397 1399 1400 1401 1404 1407 1410 1413 1417 1421 1425 1430 1436 1442 1448 1455 1460
1379 1374 1370 1366 1363 1361 1360 1359 1359 1360 1361 1363 1365 1367 1369 1372 1375 1378 1380 1382 1384 1385 1387 1388 1390 1390 1391 1392 1394 1396 1398 1401 1404 1408 1412 1417 1422 1427 1434 1440 1447 1453 1460
1372 1367 1363 1359 1356 1354 1353 1352 1352 1353 1354 1356 1358 1360 1362 1365 1368 1371 1373 1376 1378 1379 1381 1383 1384 1385 1386 1387 1388 1390 1392 1395 1399 1403 1408 1414 1419 1425 1431 1438 1444 1451 1458
1366 1361 1357 1354 1351 1349 1347 1347 1346 1347 1348 1350 1352 1354 1356 1359 1362 1365 1368 1370 1372 1374 1376 1377 1379 1380 1381 1382 1383 1385 1387 1391 1395 1400 1405 1411 1417 1423 1430 1437 1443 1450 1456
1361 1356 1352 1349 1346 1344 1343 1342 1342 1342 1343 1345 1347 1349 1352 1355 1358 1360 1363 1366 1368 1370 1371 1373 1374 1375 1376 1377 1379 1381 1384 1387 1391 1396 1402 1408 1414 1421 1428 1436 1443 1449 1455
1357 1353 1349 1346 1343 1341 1340 1339 1339 1339 1340 1342 1344 1346 1348 1351 1354 1357 1360 1362 1364 1366 1368 1369 1370 1371 1372 1374 1376 1378 1381 1385 1389 1394 1401 1407 1414 1421 1428 1435 1442 1449 1455
1355 1351 1347 1344 1341 1339 1338 1337 1337 1337 1338 1339 1341 1344 1346 1349 1351 1354 1357 1360 1361 1363 1365 1366 1367 1368 1369 1371 1373 1376 1380 1383 1388 1394 1400 1407 1414 1421 1429 1436 1442 1449 1455
1353 1349 1346 1343 1341 1339 1337 1337 1336 1337 1337 1339 1340 1342 1345 1347 1350 1353 1355 1358 1360 1362 1363 1364 1365 1367 1368 1370 1372 1375 1379 1383 1389 1395 1402 1409 1416 1423 1429 1436 1443 1449 1455
1352 1349 1346 1343 1341 1339 1338 1337 1337 1337 1338 1339 1340 1342 1344 1347 1349 1352 1354 1357 1359 1361 1362 1363 1364 1366 1368 1370 1373 1376 1381 1386 1391 1397 1404 1411 1418 1424 1430 1437 1443 1450 1456
1353 1349 1346 1344 1342 1340 1339 1338 1338 1338 1339 1340 1341 1343 1345 1347 1350 1352 1354 1357 1358 1360 1361 1363 1364 1367 1369 1372 1375 1379 1383 1389 1394 1400 1407 1413 1420 1426 1432 1438 1445 1450 1456
1354 1350 1348 1346 1343 1342 1341 1340 1340 1340 1340 1341 1342 1344 1346 1348 1351 1353 1355 1357 1358 1360 1361 1363 1365 1368 1371 1374 1378 1382 1387 1392 1398 1404 1410 1416 1421 1428 1434 1440 1445 1451 1456
1356 1353 1350 1348 1346 1344 1343 1342 1342 1342 1343 1344 1345 1347 1349 1350 1352 1354 1356 1357 1359 1361 1363 1365 1367 1371 1374 1378 1382 1387 1391 1396 1402 1407 1413 1418 1424 1430 1436 1441 1447 1452 1457
1358 1355 1352 1350 1348 1347 1346 1346 1345 1346 1347 1348 1349 1350 1352 1353 1355 1356 1358 1359 1361 1364 1366 1368 1371 1374 1378 1381 1386 1391 1396 1401 1407 1412 1417 1422 1427 1432 1438 1443 1448 1453 1458
1360 1358 1355 1353 1352 1350 1349 1349 1349 1349 1350 1351 1353 1354 1355 1356 1358 1359 1361 1362 1364 1366 1369 1371 1374 1377 1381 1385 1390 1395 1400 1405 1410 1415 1420 1425 1430 1435 1440 1445 1449 1454 1458
1363 1361 1358 1356 1355 1354 1353 1353 1353 1354 1354 1355 1357 1358 1359 1360 1361 1363 1364 1366 1368 1370 1372 1375 1378 1381 1385 1389 1394 1398 1403 1408 1413 1418 1422 1427 1432 1437 1441 1446 1450 1454 1458